Lexington Weather

Lexington, Massachusetts, USA

76°F
8/7/2020 12:01pm 
  • Lexington Conditions: Mostly cloudy
  • Temperature: 75.6°F / 24.2°CWarmer 3.8°F than last hour.
  • Dew Point: 65.1°FIncreased 1.6°Fsince last hour.
  • Relative Humidity: 70%Decreased 5.0% since last hour.
  • Wind: Wind from N N 1 mph, 10-min avg: Calm, gust: 2 mph
  • Barometer: 30.13 in Steady
  • Visibility: 10 miles
  • Rain Today: 0.00 in
  •   

Regional Weather Roundup
for Boston / Norton, MA

        
000
ASUS41 KBOX 062204
RWRBOX

REGIONAL WEATHER ROUNDUP
NATIONAL WEATHER SERVICE BOSTON/NORTON MA
600 PM EDT THU AUG 06 2020

NOTE:  "FAIR" INDICATES FEW OR NO CLOUDS BELOW 12,000 FEET WITH NO 
SIGNIFICANT WEATHER AND/OR OBSTRUCTIONS TO VISIBILITY.

MAZALL-062300-
EASTERN MASSACHUSETTS
  
CITY           SKY/WX    TMP DP  RH WIND       PRES   REMARKS
BOSTON         PTSUNNY   81  55  40 W6        30.07S                  
BEVERLY        MOSUNNY   78  52  40 S9        30.07R                  
LAWRENCE       MOSUNNY   82  55  39 VRB6      30.08S                  
BEDFORD        MOSUNNY   82  56  40 W8        30.06S                  
BLUE HILL        N/A     81  58  45 S8        30.09S                  
NORWOOD        SUNNY     83  58  42 W8        30.07S                  
MARSHFIELD     PTSUNNY   82  57  42 SW12      30.07S                  
PLYMOUTH       PTSUNNY   80  55  42 SW10      30.09S                  
TAUNTON        MOSUNNY   82  55  39 S6        30.08F                  
NEW BEDFORD    PTSUNNY   80  54  40 S6        30.08F                  
$$

MAZALL-062300-
CAPE COD AND THE ISLANDS
  
CITY           SKY/WX    TMP DP  RH WIND       PRES   REMARKS
FALMOUTH       SUNNY     79  48  34 S9        30.09F                  
HYANNIS        CLOUDY    78  53  41 S6        30.08S                  
CHATHAM        CLOUDY    75  50  41 CALM      30.10F                  
PROVINCETOWN   PTSUNNY   79  58  48 S12       30.09F                  
NANTUCKET      CLOUDY    72  62  71 SE6       30.08F                  
MARTHAS VNYRD  CLOUDY    76  58  53 S5        30.09F                  
$$
 
MAZALL-062300-
CENTRAL AND WESTERN MASSACHUSETTS
  
CITY           SKY/WX    TMP DP  RH WIND       PRES   REMARKS
WORCESTER      MOSUNNY   79  55  43 W8        30.11F                  
FITCHBURG      MOSUNNY   80  55  42 SW6       30.09S                  
ORANGE         MOSUNNY   80  55  42 SW9       30.10S                  
SPRINGFIELD    MOSUNNY   80  58  46 W6        30.07S                  
WESTFIELD      MOSUNNY   81  58  45 SW7       30.07F                  
NORTH ADAMS    SUNNY     78  56  46 MISG      30.11S                  
PITTSFIELD     SUNNY     77  57  50 N6        30.11F                  
$$
 
RIZALL-062300-
RHODE ISLAND
  
CITY           SKY/WX    TMP DP  RH WIND       PRES   REMARKS
PROVIDENCE     MOSUNNY   79  54  41 S13       30.09F                  
NEWPORT        MOSUNNY   78  55  44 S8        30.10S                  
BLOCK ISLAND   MOSUNNY   75  68  78 SW7       30.11S                  
SMITHFIELD     MOSUNNY   77  60  55 S5        30.10S                  
WESTERLY       MOSUNNY   76  60  57 S5        30.10F                  
$$
 
CTZALL-062300-
CONNECTICUT
  
CITY           SKY/WX    TMP DP  RH WIND       PRES   REMARKS
BRADLEY INTL   MOSUNNY   83  57  41 S7        30.07F                  
HARTFORD       MOSUNNY   82  58  43 S7        30.07S                  
BRIDGEPORT     NOT AVBL                                               
DANBURY        MOSUNNY   78  61  55 S7        30.11S                  
GROTON         SUNNY     75  62  64 S5        30.09F                  
NEW HAVEN      PTSUNNY   80  66  62 S5        30.10S                  
CHESTER        FAIR      77  63  61 S7        30.11S                  
MERIDEN        CLOUDY    80  61  52 S10       30.08S                  
WILLIMANTIC    CLOUDY    80  57  45 SW7       30.09S                  
OXFORD         MOSUNNY   77  61  57 SW5       30.12S                  
$$

MEZ002-015-021-024-NHZ003-005-008-011-012-014-VTZ005-008-062300-
NORTHERN NEW ENGLAND
  
CITY           SKY/WX    TMP DP  RH WIND       PRES   REMARKS
PORTLAND ME    MOSUNNY   81  52  36 W7        30.07S                  
BANGOR ME      MOSUNNY   78  53  41 NW8       30.03R                  
CONCORD NH     SUNNY     80  48  32 NW8       30.09S                  
MANCHESTER NH  MOSUNNY   82  51  34 W9        30.06S                  
NASHUA NH      MOSUNNY   82  52  35 NW13      30.08S                  
PORTSMOUTH NH  MOSUNNY   82  42  24 W7        30.06S                  
JAFFREY NH     SUNNY     77  50  38 VRB6      30.12F                  
KEENE NH       SUNNY     79  54  41 N8        30.10S                  
BURLINGTON VT  MOSUNNY   79  51  37 N7        30.09F                  
MT. WASHINGTON PTSUNNY   48  43  81 W29         N/A                   
$$

NYZ052-076-062300-
EASTERN NEW YORK
  
CITY           SKY/WX    TMP DP  RH WIND       PRES   REMARKS
ALBANY         MOSUNNY   73  53  49 NW3       30.10S                  
NEW YORK CITY  MOSUNNY   80  60  50 S10       30.09R                  
$$
 
ANZALL-062300-
MARINE OBSERVATIONS
  
STATION/POSITION TIME  TEMP    WIND        PRES    VSBY  WAVE
                       AIR SEA DIR/SP/G                  HT/PER
                 (UTC) (F)     (DEG/KT/KT) (MB)    (MI)  (FT/S)
BOSTON BUOY      2150   69 64  110/  8/ 10 1017.2F         1
BUZZARDS BAY     2100          160/ 10/ 10 1020.1F
NANTUCKET SOUND  2140      78  170/  6/  8 1017.9F
MASS BAY-STELLWA NOT AVBL
ISLE OF SHOALS   2100   70     160/ 13/ 14 1017.8S
S OF BLOCK IS    2126      72                N/A           3/ 7
$$

......................KEY.........................
  SKY/WX - SKY CONDITION/PRESENT WEATHER
  TMP    - TEMPERATURE IN FAHRENHEIT
  DWPT   - DEWPOINT IN FAHRENHEIT
  RH     - RELATIVE HUMIDITY IN PERCENT
  WIND   - DIRECTION AND SPEED IN MPH
  PRES   - MEAN SEA LEVEL PRESSURE IN INCHES OF HG
  WCI    - WIND CHILL INDEX
  VSB    - VISIBILITY IN MILES
  HX     - HEAT INDEX
  TC     - TEMPERATURE IN CELSIUS
  VRB    - VARIABLE WIND DIRECTION
  N/A    - NOT AVAILABLE
  
      

Other recent Regional Weather Roundups

Fri Aug 7, 11:04am

Fri Aug 7, 10:04am

Fri Aug 7, 9:04am

Fri Aug 7, 8:04am

Fri Aug 7, 7:04am

Fri Aug 7, 6:04am

Fri Aug 7, 5:04am

Fri Aug 7, 4:04am

Fri Aug 7, 3:04am

Fri Aug 7, 2:04am

Fri Aug 7, 1:05am

Fri Aug 7, 12:04am

Thu Aug 6, 11:04pm

Thu Aug 6, 10:04pm

Thu Aug 6, 9:04pm

Thu Aug 6, 8:04pm

Thu Aug 6, 7:04pm

Thu Aug 6, 5:04pm

Thu Aug 6, 4:05pm

Thu Aug 6, 3:04pm

Thu Aug 6, 2:05pm

Thu Aug 6, 1:04pm

Thu Aug 6, 12:04pm

Thu Aug 6, 11:04am

Thu Aug 6, 10:04am

Thu Aug 6, 9:04am

Thu Aug 6, 8:04am

Thu Aug 6, 7:04am

Thu Aug 6, 6:04am

Thu Aug 6, 5:04am

Thu Aug 6, 4:04am

Thu Aug 6, 3:04am

Thu Aug 6, 2:05am

Thu Aug 6, 1:04am

Thu Aug 6, 12:04am

Wed Aug 5, 11:04pm

Wed Aug 5, 10:04pm

Wed Aug 5, 9:04pm

Wed Aug 5, 8:05pm

Wed Aug 5, 7:04pm

Wed Aug 5, 6:04pm

Wed Aug 5, 5:04pm

Wed Aug 5, 4:05pm

Wed Aug 5, 3:04pm

Wed Aug 5, 2:04pm

Wed Aug 5, 1:04pm

Wed Aug 5, 12:04pm

Wed Aug 5, 11:04am

Wed Aug 5, 10:04am

Wed Aug 5, 9:04am

Wed Aug 5, 8:04am

Wed Aug 5, 7:04am

Wed Aug 5, 6:04am

Wed Aug 5, 5:04am

Wed Aug 5, 4:04am

Wed Aug 5, 3:04am

Wed Aug 5, 2:05am

Wed Aug 5, 1:04am

Wed Aug 5, 12:05am

Tue Aug 4, 11:05pm

Tue Aug 4, 10:05pm

Tue Aug 4, 9:04pm

Tue Aug 4, 8:04pm

Tue Aug 4, 7:05pm

Tue Aug 4, 6:05pm

Tue Aug 4, 5:05pm

Tue Aug 4, 4:05pm

Tue Aug 4, 3:04pm

Tue Aug 4, 2:05pm

Tue Aug 4, 1:04pm

Tue Aug 4, 12:05pm

Tue Aug 4, 11:04am

Tue Aug 4, 10:04am

Tue Aug 4, 9:04am

Tue Aug 4, 8:04am

Tue Aug 4, 7:04am

Tue Aug 4, 6:04am

Tue Aug 4, 5:04am

Tue Aug 4, 4:04am

Tue Aug 4, 3:04am

Tue Aug 4, 2:04am

Tue Aug 4, 1:04am

Tue Aug 4, 12:04am

Mon Aug 3, 11:04pm

Mon Aug 3, 10:04pm

Mon Aug 3, 9:04pm

Mon Aug 3, 8:05pm

Mon Aug 3, 7:04pm

Mon Aug 3, 6:04pm

Mon Aug 3, 5:04pm

Mon Aug 3, 4:05pm

Mon Aug 3, 3:04pm

Mon Aug 3, 2:04pm

Mon Aug 3, 1:04pm

Mon Aug 3, 12:05pm

Mon Aug 3, 11:04am

Mon Aug 3, 10:04am

Mon Aug 3, 9:05am

Mon Aug 3, 8:04am

Mon Aug 3, 7:04am

Mon Aug 3, 6:04am

Mon Aug 3, 5:04am

Mon Aug 3, 4:04am

Mon Aug 3, 3:04am

Mon Aug 3, 2:04am

Mon Aug 3, 1:04am

Mon Aug 3, 12:05am

Sun Aug 2, 11:04pm

Sun Aug 2, 10:04pm

Sun Aug 2, 9:04pm

Sun Aug 2, 8:04pm

Sun Aug 2, 7:04pm

Sun Aug 2, 6:04pm

Sun Aug 2, 5:04pm

Sun Aug 2, 4:05pm

Sun Aug 2, 3:04pm

Sun Aug 2, 2:05pm

Sun Aug 2, 1:04pm

Sun Aug 2, 12:04pm

Sun Aug 2, 11:04am

Sun Aug 2, 10:04am

Sun Aug 2, 9:05am

Sun Aug 2, 8:05am

Sun Aug 2, 7:04am

Sun Aug 2, 6:04am

Sun Aug 2, 5:04am

Sun Aug 2, 4:05am

Sun Aug 2, 3:04am

Sun Aug 2, 2:04am

Sun Aug 2, 1:04am

Sun Aug 2, 12:05am

Sat Aug 1, 11:04pm

Sat Aug 1, 10:04pm

Sat Aug 1, 9:04pm

Sat Aug 1, 8:05pm

Sat Aug 1, 7:04pm

Sat Aug 1, 6:04pm

Sat Aug 1, 5:05pm

Sat Aug 1, 4:05pm

Sat Aug 1, 3:04pm

Sat Aug 1, 2:04pm

Sat Aug 1, 1:04pm

Sat Aug 1, 12:04pm

Sat Aug 1, 11:05am

Sat Aug 1, 10:05am

Sat Aug 1, 9:04am

Sat Aug 1, 8:04am

Sat Aug 1, 7:04am

Sat Aug 1, 6:04am

Sat Aug 1, 5:04am

Sat Aug 1, 4:05am

Sat Aug 1, 3:04am

Sat Aug 1, 2:04am

Sat Aug 1, 1:04am

Sat Aug 1, 12:05am

Fri Jul 31, 11:05pm

Fri Jul 31, 10:04pm

Fri Jul 31, 9:04pm

Fri Jul 31, 8:05pm

Fri Jul 31, 7:05pm

Fri Jul 31, 6:04pm

Fri Jul 31, 5:04pm

Fri Jul 31, 4:05pm

Fri Jul 31, 3:04pm

Fri Jul 31, 2:05pm

Fri Jul 31, 1:04pm

Fri Jul 31, 12:04pm

Meta data:

ID: 2700ae8d-7021-4aa7-867f-1ca1e85e11c9
Link: https://api.weather.gov/products/2700ae8d-7021-4aa7-867f-1ca1e85e11c9